Temperature
19 19 19 19 19 19 19 19 19 19 19 19 19 18 18 19 19 19 19 19 19 19 19 19 18 19 18 18 19 18 18 18 18 18 18 18 18 18 18 18 18 18 18
19 19 19 19 19 19 19 19 19 19 19 19 19 19 18 18 19 19 19 19 19 19 19 18 18 19 18 18 18 18 18 18 18 18 18 18 18 18 18 18 18 18 18
19 19 19 19 19 19 19 19 19 19 19 19 19 19 18 18 18 18 19 19 18 18 18 18 18 18 18 18 18 18 18 18 18 18 18 18 18 18 18 18 18 18 18
19 19 19 19 19 19 19 18 19 19 19 19 18 18 18 18 18 18 18 18 18 18 18 18 18 18 18 18 18 18 18 18 18 18 18 18 18 18 18 18 18 18 18
19 19 19 19 19 19 19 18 18 19 19 19 18 18 18 18 18 18 18 18 18 18 18 18 18 18 18 18 18 18 18 18 18 18 18 18 18 18 18 18 18 18 18
20 19 19 19 19 19 18 19 19 19 19 19 18 18 18 18 18 18 18 18 18 18 18 18 18 18 18 18 18 18 18 18 18 18 18 18 18 18 18 18 18 18 17
20 19 19 19 19 19 19 19 19 19 19 19 18 18 18 18 18 18 18 18 18 18 18 18 18 18 18 18 18 18 18 18 18 18 18 18 18 18 18 18 18 18 17
20 20 19 19 19 19 19 19 19 19 19 19 18 18 18 18 18 18 18 18 18 18 18 18 18 18 18 18 18 18 18 18 18 18 18 18 18 18 18 18 18 17 17
20 20 20 19 19 19 19 19 19 19 19 19 18 18 18 18 18 18 18 18 18 18 18 18 18 18 18 18 18 18 18 18 18 18 18 18 18 18 18 18 18 18 18
20 20 20 19 19 19 19 19 19 19 19 19 18 18 18 18 18 18 18 18 18 18 18 18 18 18 18 18 18 18 18 18 18 18 18 18 18 18 18 18 18 18 18
20 20 20 20 19 19 19 19 19 19 19 19 18 18 18 18 18 18 18 18 18 18 18 18 18 18 18 18 18 18 18 18 18 18 18 18 18 18 18 18 18 18 18
20 20 20 20 19 19 19 19 19 19 19 19 19 18 18 18 18 18 18 18 18 18 18 18 18 18 18 18 18 18 18 18 18 18 18 18 18 18 18 18 18 18 18
20 20 20 20 19 19 19 19 19 19 19 19 19 19 18 18 18 18 18 18 18 18 18 18 18 18 18 18 18 18 18 18 18 18 18 18 18 18 18 18 18 18 18
20 20 20 20 20 19 19 19 19 19 19 19 19 19 18 18 18 18 18 18 18 18 18 18 18 18 18 18 18 18 18 18 18 18 18 18 18 18 18 18 18 18 18
21 20 20 20 20 19 19 19 19 19 19 19 19 19 18 18 18 18 18 18 18 18 18 18 18 18 18 18 18 18 18 18 18 18 18 18 18 18 18 18 18 18 18
21 20 20 20 20 20 19 19 19 19 19 19 19 19 18 18 18 18 18 18 18 18 18 18 18 18 18 18 18 18 18 18 18 18 18 18 18 18 18 18 18 18 18
21 21 20 20 20 20 20 19 19 19 19 19 19 19 18 18 18 18 18 18 18 18 18 18 18 18 18 18 18 18 18 18 18 18 18 18 18 18 18 18 18 18 18
21 21 21 20 20 20 20 20 19 19 19 19 19 19 19 19 19 18 18 18 18 18 18 18 18 18 18 18 18 18 18 18 18 18 18 18 18 18 18 18 18 18 18
22 21 21 20 20 20 20 19 19 19 19 19 19 19 19 19 19 19 19 18 18 18 18 18 18 18 18 18 18 18 18 18 18 18 18 18 18 18 18 18 18 18 18
22 21 21 21 20 20 20 20 19 19 19 19 19 19 19 19 19 19 18 18 18 18 18 18 18 18 18 18 18 18 18 18 18 18 18 18 18 18 18 18 18 18 18
22 21 21 21 20 20 20 20 19 19 19 19 19 19 19 19 19 19 19 18 18 18 18 18 18 18 18 18 18 18 18 18 18 18 18 18 18 18 18 18 18 18 18
22 22 21 21 21 20 20 20 20 20 19 19 19 19 19 19 19 19 19 19 18 18 18 18 18 18 18 18 18 18 18 18 19 19 19 19 18 18 18 18 18 18 18
22 22 22 21 21 21 20 20 20 19 19 19 19 19 19 19 19 19 19 19 19 19 18 18 18 18 18 18 18 18 18 18 18 19 19 19 19 18 18 18 18 18 18
23 22 22 22 21 21 20 20 20 20 20 20 19 19 19 19 19 19 19 19 19 19 19 18 18 18 18 18 18 18 18 18 18 18 18 18 18 18 18 18 18 18 18
23 23 22 22 21 21 21 20 20 20 20 20 19 19 19 19 19 19 19 19 19 19 19 19 18 18 18 18 18 18 18 18 18 18 18 18 18 18 18 18 18 18 18
23 22 22 22 21 21 21 21 20 20 20 20 19 19 19 19 19 19 19 19 19 19 19 19 19 18 18 18 18 18 18 18 18 18 18 18 18 18 18 18 18 18 18
Wind_Speed
2 3 9 12 14 14 14 15 16 18 19 20 21 22 22 23 23 24 23 22 22 21 20 20 19 19 19 18 17 17 18 17 17 17 16 16 16 16 16 16 15 14 16
5 6 11 13 14 14 15 15 16 18 19 20 21 21 22 22 22 23 22 22 21 20 20 19 19 18 18 17 17 17 16 17 16 16 16 15 15 15 14 14 14 14 15
7 7 11 13 14 14 15 15 16 17 18 19 20 20 21 22 22 22 22 21 20 20 19 18 18 17 16 16 16 16 15 15 16 15 14 13 13 14 14 14 15 15 15
8 9 11 14 14 14 15 15 16 17 18 19 19 19 20 21 21 21 21 20 20 19 18 18 17 16 15 15 15 14 14 14 14 13 11 11 11 13 14 14 14 14 13
8 9 12 14 14 15 15 16 16 17 18 18 18 18 19 20 20 20 20 19 19 18 18 17 16 15 14 14 13 13 12 12 11 10 10 10 10 13 14 13 13 13 12
7 8 12 14 15 15 15 16 17 17 17 17 17 17 18 19 19 19 19 18 18 18 17 16 15 14 13 13 12 11 10 10 9 9 9 10 11 13 13 12 12 12 11
8 8 11 14 14 14 15 16 16 16 17 17 17 17 17 18 19 18 18 18 17 17 16 15 14 13 12 11 10 9 8 8 8 8 10 11 12 13 13 12 11 11 11
10 7 10 13 13 13 14 15 15 16 16 16 16 16 16 17 17 18 17 17 17 16 15 14 13 12 10 9 8 7 6 6 8 8 9 11 13 14 13 12 12 11 11
9 7 6 9 11 13 14 14 14 15 16 16 16 16 16 16 17 17 16 16 16 15 14 13 12 11 9 8 6 5 5 4 6 7 9 10 13 14 13 12 12 11 11
7 6 5 7 8 10 11 13 13 15 15 16 16 16 15 15 15 15 15 15 15 15 14 13 12 10 8 7 6 5 5 4 6 7 8 10 14 14 13 13 13 12 11
7 6 6 6 7 8 9 11 12 14 14 14 14 15 13 10 11 11 13 14 15 14 13 12 10 9 7 6 5 4 3 3 6 7 8 12 14 14 14 14 13 12 12
9 7 6 7 7 8 8 9 8 9 10 10 9 10 9 9 9 10 12 13 13 13 12 11 10 8 6 4 4 3 3 4 5 7 9 13 14 14 14 14 14 13 12
10 9 8 8 7 6 5 7 6 6 8 8 9 9 9 8 7 7 7 9 9 10 8 8 7 6 5 4 3 4 3 4 6 7 10 14 15 15 14 14 14 14 13
10 9 8 8 7 6 6 6 6 5 5 6 8 10 8 5 5 6 5 6 6 6 5 5 4 4 5 5 5 4 4 5 6 8 11 14 16 16 15 15 15 14 14
9 8 8 8 8 7 6 5 6 5 6 7 8 9 10 6 5 5 5 6 6 6 5 4 4 4 4 4 5 5 4 6 7 8 10 14 16 16 16 16 15 15 14
9 8 7 8 8 8 7 6 5 6 7 7 8 9 10 8 6 5 5 5 5 6 6 6 5 4 3 3 3 4 4 6 7 8 10 13 15 16 16 16 16 16 15
10 9 8 9 8 8 8 6 6 6 7 6 7 10 10 10 9 7 5 5 5 8 7 5 3 2 2 2 2 3 3 5 7 8 9 10 12 15 17 17 16 16 16
11 10 9 10 8 8 7 6 5 6 7 7 8 9 10 11 11 7 5 5 6 6 5 4 3 2 2 2 2 2 2 3 5 7 8 9 10 11 14 17 17 17 17
12 11 9 8 9 8 6 5 5 5 5 6 8 8 10 11 12 8 5 5 7 5 4 4 3 3 3 3 2 2 2 3 3 5 6 9 10 11 12 14 17 18 18
12 11 9 8 8 7 5 4 3 3 4 5 6 8 9 9 10 8 5 6 6 5 4 3 3 3 3 3 2 2 2 3 3 4 6 7 9 12 12 12 13 15 18
12 11 10 9 8 6 4 4 4 4 4 4 5 8 9 10 10 7 5 5 5 5 5 5 3 3 3 2 1 1 2 2 3 4 4 4 6 9 11 13 12 12 12
14 12 11 10 9 8 6 5 4 4 3 4 4 5 8 9 9 8 6 6 5 4 4 4 4 3 2 3 3 1 1 3 3 3 2 4 5 5 6 11 12 12 11
14 14 13 12 10 9 7 4 3 2 2 2 3 4 5 8 8 7 7 6 6 5 5 5 5 5 3 2 3 4 3 3 2 3 2 3 3 3 4 5 9 11 12
15 14 12 12 10 9 8 7 7 6 5 5 4 4 5 6 7 7 7 7 6 5 5 5 5 4 5 3 2 2 3 4 3 2 3 2 3 3 4 4 5 8 10
13 12 11 11 10 9 9 9 8 6 5 3 3 4 5 4 5 6 7 6 6 5 6 5 4 4 4 4 3 2 2 2 2 3 3 3 2 3 3 4 4 5 8
12 11 11 11 10 9 9 9 9 8 7 6 5 6 5 3 4 5 6 6 6 5 6 6 5 5 5 4 4 3 3 3 3 3 4 3 2 3 2 2 3 3 6
Wind_Direction
110 119 114 115 117 115 111 110 110 114 115 117 118 120 121 122 123 125 127 128 128 127 127 127 127 124 124 124 124 124 122 121 122 122 121 120 120 120 118 117 116 113 114
136 124 113 113 112 110 109 111 114 117 118 119 121 122 123 124 125 126 128 129 129 129 129 129 128 125 125 123 122 123 123 122 123 122 120 120 120 120 121 120 120 121 119
122 120 116 113 112 111 109 111 116 120 123 123 125 125 126 127 128 129 129 130 131 131 131 131 129 126 125 125 123 123 124 124 123 122 119 116 119 121 122 123 124 124 123
121 120 118 118 115 115 114 114 116 120 124 125 126 128 129 130 131 131 132 132 132 132 133 132 130 128 127 126 127 126 126 127 126 123 120 122 123 125 125 128 129 128 127
118 121 125 121 118 117 119 118 118 121 124 125 129 131 132 132 133 135 134 134 134 134 134 133 131 130 129 129 128 128 130 128 128 122 124 125 127 133 132 135 136 133 131
122 125 127 123 121 120 122 123 122 124 126 127 130 132 134 136 137 137 137 136 136 136 136 135 133 133 131 130 130 130 131 130 126 128 131 133 137 141 139 140 142 141 139
128 129 128 126 125 125 125 124 124 126 128 129 131 135 136 138 140 140 140 141 141 141 140 139 137 136 134 134 135 134 133 130 128 135 141 145 149 148 146 146 145 147 147
137 133 133 132 130 128 128 128 129 130 131 132 133 134 138 141 141 142 144 145 147 147 145 144 144 144 144 143 140 136 134 132 136 144 148 155 158 156 155 155 153 154 154
138 136 136 139 138 135 133 133 134 134 134 135 135 135 138 140 141 144 147 149 150 150 150 150 151 153 155 153 150 145 137 135 141 150 157 162 165 164 163 162 161 161 162
139 140 142 140 141 141 140 139 140 140 138 139 139 140 142 143 144 146 149 152 153 153 153 154 156 161 163 167 169 163 159 146 148 158 163 171 172 172 173 169 168 168 168
145 150 150 148 147 147 145 142 138 141 141 143 146 147 146 145 146 150 154 155 157 156 157 159 163 169 176 183 185 182 175 165 169 170 175 179 179 179 178 176 175 174 174
158 164 161 156 157 158 153 141 141 142 145 147 151 150 148 150 156 158 164 162 161 161 163 168 174 181 190 204 211 207 193 181 179 178 185 184 184 184 183 182 181 181 182
163 162 162 159 158 156 144 147 152 149 152 155 160 160 158 158 163 163 165 169 167 167 173 179 187 192 200 208 220 222 217 208 183 187 192 189 190 190 190 188 187 187 189
159 163 162 158 157 156 150 155 159 156 159 164 169 169 163 159 157 161 165 168 169 175 179 190 198 202 211 217 216 217 218 211 194 192 195 195 194 195 196 195 193 194 195
155 160 160 156 158 154 151 162 162 165 168 172 172 170 165 158 155 157 163 171 176 179 183 190 202 204 210 213 217 211 204 198 192 191 197 199 198 200 202 201 199 200 200
160 159 158 153 155 154 154 154 156 166 170 171 174 175 173 168 159 157 159 166 180 189 194 196 197 197 205 203 216 210 201 196 196 196 199 202 204 205 205 205 204 204 205
164 159 159 155 154 158 159 159 157 171 169 169 174 176 176 174 172 166 165 175 186 188 188 191 194 190 208 208 224 218 200 202 197 197 199 200 205 209 209 209 210 211 213
163 163 168 164 160 162 163 164 159 167 167 171 173 176 181 179 177 169 170 182 191 182 176 173 179 181 209 214 229 240 220 210 201 201 202 203 202 208 213 215 216 217 218
166 165 167 158 162 168 167 160 157 159 166 172 173 176 182 181 179 173 174 181 184 176 181 189 176 176 194 209 225 234 231 222 212 209 203 204 205 209 212 219 221 222 223
166 165 164 162 166 166 158 146 142 148 167 172 175 182 180 179 177 174 175 178 177 175 187 187 176 176 188 194 215 240 251 242 222 213 213 211 210 213 215 218 221 226 227
165 165 167 166 171 164 159 161 162 172 174 175 185 184 181 179 176 174 178 178 178 182 190 183 176 175 196 175 119 330 323 285 248 230 217 213 216 217 213 216 218 219 225
173 174 171 173 175 173 175 172 170 165 174 181 183 181 184 179 177 181 178 182 180 178 182 182 172 171 199 173 156 132 336 328 310 261 235 219 225 216 212 215 214 213 220
178 180 180 179 177 178 173 156 150 126 130 163 176 187 188 183 185 186 184 181 180 177 185 192 184 175 190 203 175 159 170 227 280 305 271 243 231 221 220 211 205 209 216
185 182 179 177 176 176 169 166 164 172 184 195 186 188 189 185 184 188 182 181 181 181 187 197 187 178 174 196 212 206 191 176 181 284 306 279 252 230 221 219 208 208 213
183 181 177 172 174 176 172 172 173 180 187 180 174 178 186 189 187 188 184 183 187 190 193 197 184 183 183 186 196 200 204 201 187 188 255 287 296 263 231 217 218 212 214
178 179 176 174 178 178 175 175 178 179 180 174 179 183 187 190 192 192 186 187 192 191 193 196 191 189 191 188 194 193 187 190 204 196 223 247 262 275 255 223 222 221 214
Height
1497 1495 1494 1493 1493 1493 1493 1492 1492 1493 1494 1496 1499 1502 1504 1507 1509 1512 1515 1518 1520 1523 1526 1528 1530 1532 1534 1536 1539 1541 1542 1544 1545 1547 1548 1549 1551 1552 1553 1553 1554 1555 1556
1497 1496 1495 1494 1494 1495 1494 1494 1495 1495 1497 1499 1501 1504 1506 1509 1511 1514 1517 1520 1522 1525 1528 1530 1533 1535 1536 1538 1540 1542 1544 1546 1547 1549 1550 1551 1552 1553 1554 1555 1556 1556 1557
1498 1497 1497 1497 1496 1496 1496 1496 1497 1497 1499 1501 1504 1506 1508 1511 1514 1516 1519 1522 1525 1527 1530 1532 1535 1537 1539 1540 1542 1544 1546 1547 1549 1550 1551 1552 1553 1554 1555 1556 1557 1558 1559
1499 1499 1499 1499 1498 1498 1498 1498 1499 1500 1501 1503 1505 1508 1510 1513 1516 1518 1521 1524 1526 1529 1532 1534 1536 1538 1540 1542 1544 1546 1547 1549 1550 1552 1553 1554 1555 1556 1556 1557 1558 1559 1560
1501 1501 1501 1501 1500 1500 1500 1501 1501 1502 1504 1505 1508 1510 1512 1515 1517 1520 1523 1525 1528 1531 1533 1536 1538 1540 1542 1544 1545 1547 1549 1550 1551 1553 1554 1555 1556 1557 1558 1558 1559 1560 1561
1502 1503 1503 1503 1502 1502 1503 1503 1504 1505 1506 1508 1510 1512 1514 1517 1519 1522 1524 1527 1530 1532 1535 1537 1540 1542 1544 1546 1547 1549 1550 1551 1553 1554 1555 1556 1557 1558 1559 1560 1561 1561 1562
1504 1504 1504 1504 1504 1505 1505 1506 1506 1507 1509 1510 1511 1514 1516 1518 1521 1523 1526 1529 1531 1534 1536 1539 1541 1543 1545 1547 1549 1550 1552 1552 1554 1555 1556 1557 1558 1559 1560 1561 1561 1562 1563
1505 1506 1506 1506 1506 1507 1507 1508 1509 1510 1511 1512 1514 1515 1517 1520 1522 1525 1527 1530 1533 1535 1538 1540 1542 1544 1546 1548 1550 1551 1553 1553 1555 1556 1557 1558 1559 1560 1560 1561 1562 1563 1563
1507 1507 1508 1508 1508 1508 1509 1510 1510 1511 1513 1514 1516 1517 1519 1521 1524 1526 1529 1531 1534 1536 1539 1541 1543 1545 1547 1549 1551 1552 1554 1554 1555 1556 1557 1558 1559 1560 1561 1561 1562 1563 1564
1509 1509 1509 1509 1510 1510 1510 1510 1509 1511 1514 1516 1518 1520 1522 1524 1526 1528 1530 1533 1535 1538 1540 1542 1545 1547 1548 1550 1552 1553 1555 1555 1556 1557 1558 1559 1560 1560 1561 1562 1562 1563 1564
1510 1510 1511 1511 1511 1512 1512 1512 1511 1513 1516 1518 1520 1522 1524 1526 1528 1530 1532 1534 1537 1539 1541 1543 1546 1548 1549 1551 1553 1554 1555 1556 1557 1557 1558 1559 1560 1560 1561 1562 1562 1563 1564
1510 1511 1512 1512 1513 1514 1515 1515 1515 1516 1518 1520 1522 1524 1525 1527 1529 1531 1533 1535 1538 1540 1542 1544 1546 1548 1550 1551 1553 1555 1556 1556 1557 1558 1559 1559 1560 1560 1561 1562 1562 1563 1564
1511 1512 1513 1514 1515 1516 1516 1517 1518 1519 1520 1521 1523 1525 1527 1528 1530 1532 1534 1536 1538 1541 1543 1545 1547 1549 1550 1552 1554 1555 1556 1556 1557 1558 1558 1559 1559 1560 1560 1561 1562 1563 1564
1511 1512 1513 1515 1516 1517 1518 1519 1520 1520 1521 1523 1524 1526 1527 1529 1531 1533 1535 1537 1539 1541 1543 1545 1547 1549 1551 1552 1554 1555 1556 1556 1557 1557 1558 1558 1559 1559 1560 1561 1562 1562 1563
1511 1513 1514 1515 1516 1518 1519 1520 1521 1522 1523 1524 1525 1527 1528 1530 1532 1534 1536 1538 1540 1542 1544 1545 1547 1549 1551 1552 1553 1555 1555 1556 1556 1557 1557 1558 1558 1559 1560 1560 1561 1562 1562
1511 1513 1514 1516 1517 1518 1520 1521 1521 1522 1524 1525 1526 1527 1529 1531 1533 1535 1536 1538 1540 1542 1544 1546 1547 1549 1550 1552 1553 1554 1555 1555 1556 1556 1556 1557 1557 1558 1558 1559 1560 1560 1561
1511 1513 1514 1516 1517 1519 1520 1521 1522 1523 1524 1526 1527 1529 1531 1532 1534 1535 1537 1539 1541 1542 1544 1546 1547 1549 1550 1551 1552 1553 1554 1554 1555 1555 1555 1556 1556 1557 1557 1558 1558 1559 1559
1510 1512 1514 1516 1517 1519 1520 1521 1522 1523 1525 1526 1528 1529 1531 1532 1534 1536 1537 1539 1541 1542 1544 1545 1547 1548 1549 1550 1551 1552 1553 1553 1554 1554 1554 1555 1555 1555 1556 1556 1557 1557 1558
1509 1511 1513 1515 1517 1519 1520 1521 1522 1523 1525 1526 1528 1529 1531 1532 1534 1535 1537 1538 1540 1542 1543 1545 1546 1547 1548 1549 1550 1551 1551 1552 1552 1552 1553 1553 1553 1554 1554 1555 1555 1555 1556
1508 1511 1513 1514 1516 1518 1519 1521 1522 1523 1525 1526 1528 1529 1530 1532 1534 1535 1537 1538 1539 1541 1542 1544 1545 1546 1547 1548 1549 1550 1550 1550 1550 1550 1551 1551 1551 1552 1552 1553 1553 1553 1554
1507 1509 1511 1513 1515 1516 1518 1520 1521 1522 1524 1525 1527 1528 1530 1531 1533 1534 1535 1537 1538 1540 1541 1543 1544 1545 1546 1547 1548 1548 1548 1548 1548 1548 1549 1549 1549 1549 1550 1550 1550 1551 1551
1504 1506 1509 1511 1513 1515 1517 1519 1521 1522 1523 1525 1526 1527 1529 1530 1532 1533 1534 1536 1537 1538 1540 1541 1542 1543 1544 1545 1546 1546 1546 1547 1546 1546 1546 1546 1547 1547 1547 1547 1548 1548 1549
1501 1504 1506 1508 1511 1513 1515 1518 1520 1521 1523 1524 1525 1526 1527 1529 1530 1532 1533 1534 1535 1536 1537 1539 1540 1541 1542 1543 1544 1545 1545 1544 1544 1544 1544 1544 1544 1544 1545 1545 1545 1545 1546
1499 1502 1504 1507 1509 1511 1514 1515 1517 1518 1520 1521 1523 1524 1526 1527 1529 1530 1531 1532 1533 1534 1536 1537 1538 1539 1540 1540 1542 1542 1543 1543 1543 1542 1542 1542 1542 1542 1542 1542 1542 1542 1543
1497 1500 1503 1505 1507 1509 1511 1513 1515 1517 1519 1520 1522 1523 1524 1526 1527 1528 1530 1531 1532 1533 1534 1535 1535 1536 1537 1538 1539 1540 1540 1540 1541 1541 1539 1540 1540 1540 1539 1539 1539 1540 1540
1495 1498 1500 1503 1505 1507 1509 1511 1513 1515 1517 1518 1519 1521 1522 1524 1525 1526 1527 1528 1529 1530 1531 1532 1533 1534 1535 1535 1536 1537 1538 1538 1538 1538 1537 1537 1537 1537 1537 1537 1537 1537 1537